Regional Weather Roundup
Issued by NWS

Home | Current Version | Previous Version | Text Only | Print | Product List | Glossary On
Versions: 1 2 3 4 5 6 7 8 9 10 11 12 13 14 15 16 17 18 19 20 21 22 23 24 25 26 27 28
000
ASUS42 KKEY 242310
RWRKEY

FLORIDA REGIONAL WEATHER ROUNDUP FOR THE FLORIDA KEYS
NATIONAL WEATHER SERVICE KEY WEST FLORIDA
700 PM EDT SUN JUL 24 2016

...SOUTH FLORIDA AND THE KEYS...

CITY           SKY/WX    TMP DP  RH WIND       PRES   REMARKS
FORT MYERS     MOSUNNY   83  72  69 S3        30.02F
SW REGIONAL AP MOSUNNY   85  70  60 E3        30.02F
NAPLES         CLOUDY    80  73  79 SE5       30.02F
MIAMI          PTSUNNY   85  72  65 SE6       30.03R HX  91
WEST KENDALL   MOSUNNY   83  73  72 E10       30.02S
HOMESTEAD      PTSUNNY   83  74  74 E7        30.03R HX  90
MARATHON       MOSUNNY   84  73  69 E8        30.02S HX  90
BOCA CHICA NAS PTSUNNY   85  73  67 E9        30.02R HX  91
KEY WEST INTL  PTSUNNY   85  75  72 E6        30.02S HX  93

...INTERNATIONAL WEATHER...

CITY           SKY/WX    TMP DP  RH WIND       PRES   REMARKS
NASSAU BAHAMAS MOSUNNY   86  73  66 CALM      30.06R HX  93
CANCUN MEXICO  CLOUDY    81  75  83 N46       29.98S
COZUMEL MEXICO PTSUNNY   84  73  70 SE6       29.97F HX  91

ADJACENT COASTAL WATERS...

STATION/POSITION TIME  SKY/WX   TEMP    WIND        PRES    WAVE
                                AIR SEA DIR/SP/G            HT/PER
                 (UTC)          (F)     (DEG/KT/KT) (MB)    (FT/S)
PULASKI SHOAL LI 2300            83     120/  3/  4 1016.9R
SAND KEY         2250            83      90/  6/  7 1017.2R
LONG KEY         2300            83 87   80/  7/  8 1016.8F
FOWEY ROCKS      2300            82 85   90/ 10/ 11 1017.3R

$$




USA.gov is the U.S. government's official web portal to all federal, state and local government web resources and services.